カタログに戻る

BREEZE-M DEB

運用中HEO
NORAD 32040·DEBRIS·🇷🇺 Russia

打ち上げ Feb 28, 2006 から Baikonur Cosmodrome

Loading…

次のパス (今後24時間)

TLE

最新Source: Space-Track

元期: Sep 8, 2026, 14:41 UTC

1 32040U 06006T   26251.61212678  .00001858  00000-0  11730-2 0  9996
2 32040  51.6512  52.6335 4796505  19.9822 353.7602  5.82141507275285

AllMySatでBREEZE-M DEBをリアルタイム追跡

Download on the App Store